Simultaneous Nadir Overpasses (SNOs) Predictions

Prediction of SNOs between AQUA and GOES-15 Satellite Orbit:

Table of predicted SNOs for the next 14.0 days since TLE Epoch: 9/9/2023
Index Date Time (AQUA) AQUA Lat,Lon GOES-15 Lat,Lon Distance(km) Time Diff (sec)
1 09/09/2023 06:07:17 -1.09, 116.70 -0.37, 120.03 378.19 80
2 09/11/2023 05:52:55 0.11, 120.14 -0.37, 117.94 250.95 80
3 09/11/2023 18:13:37 0.83, 115.11 0.36, 117.44 263.85 80
4 09/13/2023 17:59:14 -0.35, 118.56 0.36, 115.34 366.39 80
5 09/14/2023 06:20:03 -0.60, 113.50 -0.35, 114.76 143.28 80
6 09/16/2023 06:05:39 0.56, 116.95 -0.36, 112.65 489.49 80
7 09/16/2023 18:26:21 0.36, 111.92 0.34, 112.13 24.22 80
8 09/19/2023 06:32:46 -0.14, 110.31 -0.34, 109.44 99.59 80
9 09/19/2023 18:53:27 1.11, 105.29 0.32, 108.91 412.54 80
10 09/21/2023 18:39:02 -0.08, 108.74 0.33, 106.79 221.49 80
11 09/22/2023 06:59:51 -0.89, 103.68 -0.31, 106.22 289.09 80
